Alabaster, AL

10:33 PM CDT on May 27, 2017 (GMT -0500)
Shelby County

Weather History for KEET - July, 2013

Change the Weather History Date:

Wednesday, July 24, 2013

  Actual Average Record
Temperature  
Mean Temperature 77 °F 81 °F  
Max Temperature 85 °F 91 °F 99 °F (2010)
Min Temperature 68 °F 71 °F 57 °F (1966)
Cooling Degree Days 12 16  
Month to date cooling degree days 320 376  
Year to date cooling degree days 984 1019  
Since 1 June cooling degree days 732 750  
Growing Degree Days 26 (Base 50)    
Moisture  
Dew Point 71 °F    
Average Humidity 85    
Maximum Humidity 100    
Minimum Humidity 70    
Precipitation  
Precipitation 0.01 in 0.15 in 2.84 in (1963)
Month to date precipitation 6.88 3.69  
Year to date precipitation 40.58 32.25  
Sea Level Pressure  
Sea Level Pressure 29.90 in    
Wind  
Wind Speed 2 mph (WSW)    
Max Wind Speed 7 mph    
Max Gust Speed 9 mph    
Visibility 5 miles    
Events Fog , Rain    
T = Trace of Precipitation, MM = Missing Value Source: NWS Daily Summary

Daily Weather History Graph

Daily Weather History Graph

Search for Another Location

Airport or City:

Trip Planner

Search our weather history database for the weather conditions in past years. The results will help you decide how hot, cold, wet, or windy it might be!

Date:

Astronomy

Jul. 24, 2013 Rise Set
Actual Time 5:54 AM CDT 7:52 PM CDT
Civil Twilight 5:27 AM CDT 8:19 PM CDT
Nautical Twilight 4:53 AM CDT 8:52 PM CDT
Astronomical Twilight 4:18 AM CDT 9:28 PM CDT
Moon 9:09 PM CDT (7/24) 8:04 AM CDT (7/24)
Length of Visible Light 14h 52m
Length of Day
13h 57m
Waning Gibbous, 94% of the Moon is Illuminated
Jul 24
Waning Gibbous
Jul 29
Last Quarter
Aug 6
New
Aug 14
First Quarter
Aug 20
Full

Hourly Weather History & Observations

Time (CDT) Temp. Heat Index Dew Point Humidity Pressure Visibility Wind Dir Wind Speed Gust Speed Precip Events Conditions
12:53 AM 69.1 °F - 68.0 °F 96% 29.91 in 4.0 mi SW 3.5 mph - N/A   Overcast
1:23 AM 69.8 °F - 68.0 °F 94% 29.92 in 1.8 mi Calm Calm - N/A   Overcast
1:53 AM 68.0 °F - 68.0 °F 100% 29.89 in 0.8 mi SW 3.5 mph - N/A   Mist
2:05 AM 68.0 °F - 68.0 °F 100% 29.91 in 1.2 mi Calm Calm - N/A   Overcast
2:18 AM 69.8 °F - 68.0 °F 94% 29.91 in 0.8 mi Calm Calm - N/A   Mist
2:53 AM 69.1 °F - 68.0 °F 96% 29.88 in 0.5 mi Calm Calm - N/A Fog Fog
3:18 AM 69.8 °F - 69.8 °F 100% 29.90 in 0.2 mi Calm Calm - N/A Fog Fog
3:37 AM 69.8 °F - 68.0 °F 94% 29.90 in 0.8 mi SW 3.5 mph - N/A   Mist
3:44 AM 69.8 °F - 68.0 °F 94% 29.90 in 1.8 mi South 3.5 mph - N/A   Overcast
3:51 AM 69.8 °F - 68.0 °F 94% 29.90 in 3.0 mi Calm Calm - N/A   Overcast
3:53 AM 69.1 °F - 68.0 °F 96% 29.88 in 4.0 mi Calm Calm - N/A   Overcast
4:43 AM 69.8 °F - 69.8 °F 100% 29.91 in 1.8 mi SSE 4.6 mph - 0.01 in   Overcast
4:53 AM 69.1 °F - 69.1 °F 100% 29.89 in 3.0 mi South 4.6 mph - 0.01 in   Overcast
5:49 AM 69.8 °F - 69.8 °F 100% 29.91 in 2.0 mi Calm Calm - N/A   Overcast
5:53 AM 69.1 °F - 69.1 °F 100% 29.89 in 2.0 mi Calm Calm - N/A   Overcast
6:07 AM 69.8 °F - 69.8 °F 100% 29.91 in 1.2 mi Calm Calm - N/A   Overcast
6:24 AM 69.8 °F - 69.8 °F 100% 29.90 in 2.0 mi Calm Calm - N/A   Overcast
6:53 AM 69.1 °F - 69.1 °F 100% 29.89 in 2.0 mi Calm Calm - N/A   Overcast
7:04 AM 69.8 °F - 69.8 °F 100% 29.91 in 1.5 mi Calm Calm - N/A   Overcast
7:15 AM 69.8 °F - 69.8 °F 100% 29.91 in 2.5 mi Calm Calm - N/A   Overcast
7:53 AM 71.1 °F - 70.0 °F 96% 29.91 in 4.0 mi Calm Calm - N/A   Overcast
8:53 AM 73.0 °F - 70.0 °F 90% 29.91 in 7.0 mi Calm Calm - N/A   Overcast
9:25 AM 73.4 °F - 71.6 °F 94% 29.92 in 7.0 mi Calm Calm - N/A   Overcast
9:53 AM 73.9 °F - 71.1 °F 91% 29.91 in 7.0 mi Calm Calm - N/A   Overcast
10:53 AM 75.0 °F - 72.0 °F 90% 29.92 in 7.0 mi Calm Calm - N/A   Overcast
11:19 AM 75.2 °F - 71.6 °F 89% 29.94 in 6.0 mi NW 4.6 mph - N/A   Overcast
11:37 AM 75.2 °F - 71.6 °F 89% 29.93 in 6.0 mi Calm Calm - N/A   Overcast
11:53 AM 77.0 °F - 73.0 °F 88% 29.92 in 6.0 mi Calm Calm - N/A   Overcast
12:53 PM 80.1 °F 84.2 °F 73.0 °F 79% 29.90 in 6.0 mi Calm Calm - N/A   Haze
1:53 PM 81.0 °F 86.2 °F 73.9 °F 79% 29.88 in 7.0 mi East 3.5 mph - N/A   Overcast
2:16 PM 82.4 °F 88.2 °F 73.4 °F 74% 29.88 in 7.0 mi Calm Calm - N/A   Scattered Clouds
2:53 PM 84.0 °F 91.9 °F 75.0 °F 74% 29.86 in 8.0 mi NNW 5.8 mph - N/A   Scattered Clouds
3:53 PM 84.0 °F 91.2 °F 73.9 °F 72% 29.83 in 8.0 mi North 5.8 mph - N/A   Clear
4:53 PM 81.0 °F 86.7 °F 75.0 °F 82% 29.86 in 8.0 mi Calm Calm - N/A   Scattered Clouds
5:53 PM 80.1 °F 85.4 °F 75.9 °F 87% 29.86 in 7.0 mi Calm Calm - 0.00 in   Mostly Cloudy
6:53 PM 78.1 °F - 73.0 °F 84% 29.87 in 10.0 mi SW 3.5 mph - N/A   Clear
7:53 PM 73.9 °F - 72.0 °F 93% 29.90 in 10.0 mi South 3.5 mph - 0.00 in Rain Light Rain
8:53 PM 73.0 °F - 71.1 °F 93% 29.89 in 10.0 mi SSW 3.5 mph - N/A   Scattered Clouds
9:53 PM 73.0 °F - 70.0 °F 90% 29.90 in 10.0 mi Calm Calm - N/A   Partly Cloudy
10:26 PM 73.4 °F - 69.8 °F 88% 29.92 in 10.0 mi Calm Calm - N/A   Mostly Cloudy
10:34 PM 73.4 °F - 69.8 °F 88% 29.92 in 10.0 mi Calm Calm - N/A   Mostly Cloudy
10:53 PM 73.0 °F - 71.1 °F 93% 29.90 in 10.0 mi Variable 3.5 mph - N/A   Mostly Cloudy
11:02 PM 73.4 °F - 71.6 °F 94% 29.92 in 10.0 mi NW 3.5 mph - N/A   Scattered Clouds
11:14 PM 71.6 °F - 71.6 °F 100% 29.92 in 10.0 mi NW 3.5 mph - N/A   Mostly Cloudy
11:21 PM 71.6 °F - 71.6 °F 100% 29.92 in 10.0 mi Calm Calm - N/A   Partly Cloudy
11:53 PM 72.0 °F - 71.1 °F 97% 29.90 in 10.0 mi WNW 4.6 mph - N/A   Clear